Weather History for Buffalo, WY

Change the Weather History Date:

Monday, October 1, 2012

  Actual Average Record
Temperature  
Mean Temperature 13 °C 11 °C  
Max Temperature 22 °C 17 °C 31 °C (1957)
Min Temperature 6 °C 4 °C -1 °C (2004)
Degree Days  
Heating Degree Days 8 14  
Month to date heating degree days 14  
Since 1 July heating degree days 328  
Cooling Degree Days 0 0  
Month to date cooling degree days 0  
Year to date cooling degree days 491  
Growing Degree Days 6 (Base 50)    
Moisture  
Dew Point 1 °C    
Average Humidity 46    
Maximum Humidity 76    
Minimum Humidity 25    
Precipitation  
Precipitation 0.00 mm 1.27 mm 0.81 mm (2002)
Month to date precipitation 0.05  
Year to date precipitation 11.63  
Sea Level Pressure  
Sea Level Pressure 1021 hPa    
Wind  
Wind Speed 13 km/h (SW)    
Max Wind Speed 23 km/h    
Max Gust Speed 32 km/h    
Visibility 16 kilometers    
Events      
T = Trace of Precipitation, MM = Missing Value Source: NWS Daily Summary

Daily Weather History Graph

Daily Weather History Graph

Search for Another Location

Airport:

Trip Planner

Search our weather history database for the weather conditions in past years. The results will help you decide how hot, cold, wet, or windy it might be!

Date:

Astronomy

Oct. 01, 2012 Rise Set
Actual Time 7:05 AM MDT 6:46 PM MDT
Civil Twilight 6:36 AM MDT 7:15 PM MDT
Nautical Twilight 6:02 AM MDT 7:49 PM MDT
Astronomical Twilight 5:28 AM MDT 8:23 PM MDT
Moon 7:18 PM MDT (10/1) 8:43 AM MDT (10/1)
Length of Visible Light 12h 39m
Length of Day
11h 41m
Full, 97% of the Moon is Illuminated
Oct 1
Full
Oct 8
Last Quarter
Oct 15
New
Oct 21
First Quarter
Oct 29
Full

Hourly Weather History & Observations

Time (MDT) Temp. Windchill Dew Point Humidity Pressure Visibility Wind Dir Wind Speed Gust Speed Precip Events Conditions
12:53 AM 11.1 °C - 2.2 °C 54% 1023.6 hPa 16.1 km NW 16.7 km/h / 4.6 m/s - N/A   Clear
1:53 AM 11.1 °C - 2.8 °C 57% 1023.8 hPa 16.1 km NW 13.0 km/h / 3.6 m/s - N/A   Clear
2:53 AM 11.1 °C - 2.2 °C 54% 1023.5 hPa 16.1 km NNW 14.8 km/h / 4.1 m/s - N/A   Clear
3:53 AM 9.4 °C - 2.8 °C 64% 1024.4 hPa 16.1 km North 16.7 km/h / 4.6 m/s - N/A   Clear
4:53 AM 7.8 °C 6.2 °C 2.8 °C 71% 1025.0 hPa 16.1 km NW 9.3 km/h / 2.6 m/s - N/A   Clear
5:53 AM 7.2 °C 6.4 °C 2.2 °C 71% 1025.1 hPa 16.1 km NNW 5.6 km/h / 1.5 m/s - N/A   Clear
6:53 AM 5.6 °C - 1.7 °C 76% 1025.9 hPa 16.1 km Calm Calm - N/A   Clear
7:53 AM 7.2 °C 5.5 °C 2.8 °C 74% 1026.0 hPa 16.1 km WSW 9.3 km/h / 2.6 m/s - N/A   Clear
8:53 AM 10.6 °C - 2.8 °C 59% 1025.4 hPa 16.1 km SSE 9.3 km/h / 2.6 m/s - N/A   Clear
9:53 AM 13.9 °C - 3.3 °C 49% 1024.0 hPa 16.1 km SSE 16.7 km/h / 4.6 m/s - N/A   Clear
10:53 AM 16.1 °C - 2.2 °C 39% 1023.1 hPa 16.1 km SSE 20.4 km/h / 5.7 m/s - N/A   Clear
11:53 AM 17.8 °C - -0.6 °C 29% 1022.3 hPa 16.1 km SSE 16.7 km/h / 4.6 m/s - N/A   Clear
12:53 PM 18.9 °C - 0.0 °C 28% 1021.1 hPa 16.1 km South 18.5 km/h / 5.1 m/s - N/A   Clear
1:53 PM 20.0 °C - -0.6 °C 25% 1019.2 hPa 16.1 km SSE 22.2 km/h / 6.2 m/s 31.5 km/h / 8.7 m/s N/A   Clear
2:53 PM 21.1 °C - 0.6 °C 26% 1017.9 hPa 16.1 km SE 18.5 km/h / 5.1 m/s 29.6 km/h / 8.2 m/s N/A   Clear
3:53 PM 21.7 °C - 1.1 °C 26% 1016.9 hPa 16.1 km SE 20.4 km/h / 5.7 m/s 25.9 km/h / 7.2 m/s N/A   Clear
4:53 PM 21.7 °C - 1.1 °C 26% 1016.0 hPa 16.1 km ESE 11.1 km/h / 3.1 m/s - N/A   Clear
5:53 PM 21.1 °C - 1.1 °C 27% 1015.1 hPa 16.1 km East 7.4 km/h / 2.1 m/s - N/A   Clear
6:53 PM 17.8 °C - 1.1 °C 33% 1015.6 hPa 16.1 km NNW 11.1 km/h / 3.1 m/s - N/A   Clear
7:53 PM 12.8 °C - 1.7 °C 47% 1015.9 hPa 16.1 km West 11.1 km/h / 3.1 m/s - N/A   Clear
8:53 PM 12.8 °C - 1.1 °C 45% 1014.9 hPa 16.1 km West 11.1 km/h / 3.1 m/s - N/A   Clear
10:53 PM 12.8 °C - -1.1 °C 38% 1012.6 hPa 16.1 km WSW 11.1 km/h / 3.1 m/s - N/A   Clear
11:53 PM 11.7 °C - -1.7 °C 40% 1011.7 hPa 16.1 km WNW 7.4 km/h / 2.1 m/s - N/A   Clear